Regional Weather Roundup
Issued by NWS

Home | Current Version | Previous Version | Graphics & Text | Print | Product List | Glossary On
Versions: 1 2 3 4 5 6 7 8 9 10 11 12 13 14 15 16 17 18 19 20 21 22 23 24 25 26 27 28 29 30 31 32 33 34 35 36 37 38 39 40 41 42 43 44 45 46 47 48 49 50
000
ASUS45 KSLC 300410
RWRUT

UTAH REGIONAL WEATHER ROUNDUP
NATIONAL WEATHER SERVICE SALT LAKE CITY UT
1000 PM MDT MON SEP 29 2014

UTZ001>011-023>025-300500-

NORTHERN UTAH

CITY           SKY/WX    TMP DP  RH WIND       PRES   REMARKS
HILL AFB       MOCLDY    54  43  68 S3        30.01S
LOGAN          NOT AVBL
OGDEN          CLOUDY    55  44  66 S7        29.99S
PROVO AIRPORT  PTCLDY    50  43  76 CALM      30.03R
SALT LAKE CITY MOCLDY    53  48  83 S7        30.00R
VERNAL         MOCLDY    50  45  83 CALM      29.99R
WENDOVER       CLOUDY    55  39  54 W8        30.00S
HEBER CITY     PTCLDY    46  41  81 CALM      30.03S
WEST JORDAN    CLOUDY    52  46  82 SW6       30.02S

$$

UTZ012>022-026-027-300500-

SOUTHERN UTAH

CITY           SKY/WX    TMP DP  RH WIND       PRES   REMARKS
BRYCE CANYON   MOCLDY    44  36  73 W7        30.14R
CEDAR CITY     CLOUDY    52  41  66 SW5       30.06R
MILFORD        CLOUDY    54  44  69 SW3       30.02R
MOAB/CYNLANDS  PTCLDY    52  46  80 SW3       30.00F
PRICE          CLEAR     50  44  80 E5        30.05R
ST GEORGE      PTCLDY    64  39  39 SE5       29.97R
KANAB            N/A     52  39  62 CALM      30.09R

$$

REGIONAL REPORTS     COLORADO/ARIZONA

CITY           SKY/WX    TMP DP  RH WIND       PRES   REMARKS
CRAIG, CO      CLOUDY    47  37  68 SW9       30.02R
GRAND JUNCTION PTCLDY    47  44  90 E5        30.04S
RIFLE          CLOUDY    47  44  90 E5        30.06R
MONTROSE       MOCLDY    45  43  93 CALM      30.10R
CORTEZ         CLEAR     49  43  80 NE3       30.10R
PAGE, AZ       NOT AVBL
GRAND CANYON   CLEAR     42  37  82 CALM      30.13R
KINGMAN        NOT AVBL
FLAGSTAFF      CLEAR     43  34  70 CALM      30.15R

$$

REGIONAL REPORTS    NEVADA/IDAHO/WYOMING

CITY           SKY/WX    TMP DP  RH WIND       PRES   REMARKS
LAS VEGAS, NV  CLEAR     77  37  23 S8        29.88R
ELY            CLOUDY    49  40  71 W3        30.11R
ELKO           CLOUDY    50  46  86 SW5       30.06S
POCATELLO, ID  CLOUDY    51  50  96 S9        29.97F
BURLEY         CLOUDY    52  48  86 SW10      29.96S
EVANSTON, WY   MOCLDY    42  38  85 SW10      30.06R
ROCK SPRINGS   CLOUDY    47  39  74 W14       30.00R

$$


USA.gov is the U.S. government's official web portal to all federal, state and local government web resources and services.